Location: Ballingbuur
(53.0000°N, 5.7667°E)
Time: 07:05:38
(UTC+00:00)

Cosmos 1898 Rocket - Pass Details

Date: 29 November 2020
Orbit: 754 x 783 km, 74.0° (Epoch: 23 January)

Event Time Altitude Azimuth Distance (km) Brightness Sun altitude
Rises 06:29:19 0° 237° (WSW) 3,259 6.4 -8.0°
Reaches altitude 10° 06:31:57 10° 248° (WSW) 2,338 5.6 -7.7°
Maximum altitude 06:36:40 32° 311° (NW) 1,336 4.3 -7.0°
Drops below altitude 10° 06:41:27 10° 14° (NNE) 2,353 5.9 -6.4°
Sets 06:44:06 0° 24° (NNE) 3,284 6.7 -6.0°
